Terminal Aerodrome Forecast
Issued by NWS

Home | Current Version | Previous Version | Text Only | Print | Product List | Glossary On
Versions: 1 2 3 4 5 6 7 8 9 10 11 12 13 14 15 16 17 18 19 20
000
FTUS46 KSEW 281200 AAA
TAFHQM
TAF AMD
KHQM 281215Z 2812/2912 VRB03KT 5SM BR SCT250
      TEMPO 2812/2816 1/2SM FG BKN001 BKN250
     FM281900 08007KT P6SM BKN050 BKN080
     FM282100 09008KT P6SM OVC050
     FM290100 09007KT P6SM -RA OVC040=

USA.gov is the U.S. government's official web portal to all federal, state and local government web resources and services.